Temperature
8 7 6 6 7 7 7 8 7 7 7 6 6 6 6 7 6 6 6 6 5 5 4 4 4 4 4 4 4 4 4 4 4 5 5 5 6 6 6 6 6 6 7 7
7 6 6 7 7 7 7 7 7 7 7 6 5 5 5 6 6 5 5 5 4 4 4 3 3 3 3 3 3 3 4 4 4 4 4 5 5 5 5 5 6 6 6 6
6 6 6 7 6 6 6 5 5 5 5 5 4 5 5 5 6 6 5 4 4 3 3 2 2 2 3 3 3 3 3 3 3 3 3 4 4 4 5 5 5 5 5 6
6 6 6 5 5 5 5 5 5 5 4 4 5 3 5 5 4 4 4 4 3 3 2 2 2 2 2 2 2 2 2 2 3 3 3 3 3 4 4 4 5 5 5 5
5 5 4 4 4 4 4 4 4 4 3 3 4 3 4 4 4 3 3 3 3 2 2 1 1 1 1 1 2 2 2 2 2 2 2 2 3 3 3 4 4 4 4 5
4 4 4 4 4 4 4 4 3 3 3 2 3 3 4 3 4 3 3 3 2 2 1 1 1 1 1 1 1 1 1 2 2 2 2 2 2 2 3 3 3 4 4 4
4 4 3 3 3 3 3 2 2 2 2 3 3 3 3 4 3 3 2 2 2 1 1 0 0 0 0 0 0 0 1 1 1 1 1 2 2 2 2 2 2 3 3 3
4 4 3 3 2 2 2 2 2 2 3 3 2 2 3 3 3 3 2 1 1 1 0 0 -0 -0 -0 -0 -0 -0 0 0 1 1 1 1 1 1 1 1 2 2 2 2
4 3 3 2 3 2 2 2 2 1 1 1 2 3 3 2 2 1 1 0 0 0 -0 -0 -0 -1 -1 -1 -1 -1 -1 -0 -0 -0 -0 0 0 1 1 1 1 1 1 1
3 2 2 2 2 1 2 2 0 0 1 1 3 3 2 2 1 0 -0 -0 -0 -0 -1 -1 -1 -1 -1 -1 -1 -2 -1 -1 -1 -1 -1 -1 -0 -0 0 0 0 0 1 1
2 1 1 1 -0 0 0 0 0 0 1 1 1 2 3 2 1 0 -0 0 -0 -1 -1 -1 -1 -2 -2 -2 -2 -2 -2 -2 -2 -2 -2 -1 -1 -1 -1 -0 -0 -0 -0 0
1 1 0 1 0 0 0 0 -0 -1 -0 0 -0 1 2 1 0 0 -0 -0 -0 -1 -1 -2 -2 -2 -2 -2 -3 -3 -3 -3 -3 -3 -2 -2 -2 -1 -1 -1 -1 -1 -1 -1
0 -0 -0 1 -1 -2 -1 -1 -1 -1 -1 -1 -0 0 0 -0 -0 -0 -1 -1 -1 -2 -2 -2 -3 -3 -3 -3 -3 -3 -4 -4 -3 -3 -3 -3 -3 -2 -2 -2 -2 -1 -1 -1
1 -1 -0 1 1 -1 -2 -2 -2 -2 -2 -2 -1 -0 0 -0 -1 -1 -1 -1 -2 -2 -3 -3 -3 -3 -4 -4 -4 -4 -4 -4 -4 -4 -4 -4 -3 -3 -3 -3 -2 -2 -2 -2
-1 -2 -1 -1 -0 -1 -1 -2 -2 -3 -2 -2 -1 -1 0 -1 -1 -1 -1 -2 -3 -3 -4 -4 -4 -4 -4 -4 -4 -5 -5 -5 -5 -5 -5 -4 -4 -4 -4 -4 -3 -3 -3 -3
-2 -2 -2 -2 -1 -1 -1 -1 -2 -2 -2 -2 -2 -1 -1 -1 -2 -2 -3 -3 -4 -4 -4 -4 -5 -5 -5 -5 -5 -5 -5 -5 -5 -5 -5 -5 -5 -5 -4 -4 -4 -4 -4 -3
-3 -3 -3 -2 -2 -2 -3 -2 -2 -2 -3 -3 -2 -2 -2 -3 -3 -3 -3 -4 -4 -5 -5 -5 -5 -5 -5 -5 -6 -6 -6 -6 -6 -6 -6 -6 -6 -5 -5 -5 -5 -5 -5 -4
-4 -3 -3 -2 -3 -3 -1 -2 -2 -3 -3 -3 -3 -4 -4 -4 -4 -4 -4 -5 -5 -5 -5 -5 -5 -6 -6 -6 -6 -6 -6 -6 -6 -6 -6 -6 -6 -6 -6 -6 -6 -6 -5 -5
-4 -4 -3 -3 -3 -2 -1 -3 -4 -4 -4 -4 -4 -4 -4 -5 -5 -5 -5 -5 -5 -5 -6 -6 -6 -6 -6 -7 -7 -7 -7 -7 -7 -7 -7 -7 -7 -7 -7 -6 -6 -6 -6 -6
-5 -5 -4 -3 -3 -3 -2 -4 -4 -4 -5 -5 -5 -6 -6 -6 -6 -6 -5 -6 -6 -6 -6 -6 -7 -7 -7 -7 -7 -7 -7 -7 -7 -7 -7 -7 -7 -7 -7 -7 -7 -7 -7 -7
-6 -5 -5 -4 -4 -3 -4 -5 -4 -4 -4 -5 -5 -6 -6 -7 -7 -6 -6 -7 -7 -7 -7 -7 -7 -7 -7 -8 -8 -8 -8 -8 -8 -8 -8 -8 -8 -8 -8 -8 -8 -8 -7 -7
-5 -5 -5 -4 -4 -3 -6 -6 -6 -5 -5 -5 -6 -6 -7 -7 -7 -7 -7 -7 -8 -8 -8 -8 -8 -8 -8 -8 -8 -8 -8 -8 -9 -9 -8 -8 -8 -8 -8 -8 -8 -8 -8 -8
-5 -5 -5 -4 -4 -5 -6 -6 -6 -6 -6 -6 -7 -7 -7 -8 -8 -8 -8 -8 -8 -8 -9 -9 -9 -9 -9 -9 -9 -9 -9 -9 -9 -9 -9 -9 -9 -9 -9 -9 -9 -9 -9 -9
-6 -7 -6 -6 -7 -7 -6 -6 -6 -7 -7 -7 -7 -8 -8 -9 -9 -9 -9 -9 -9 -9 -9 -9 -9 -9 -9 -9 -10 -10 -10 -10 -10 -10 -9 -9 -9 -9 -9 -9 -9 -9 -9 -9
-7 -8 -7 -8 -8 -7 -7 -7 -7 -7 -8 -8 -8 -8 -9 -9 -9 -10 -10 -10 -10 -10 -10 -10 -10 -10 -10 -10 -10 -10 -10 -10 -10 -10 -10 -10 -10 -10 -10 -10 -10 -10 -10 -10
-8 -9 -8 -7 -8 -8 -8 -7 -7 -8 -8 -8 -9 -9 -9 -10 -10 -10 -10 -10 -10 -10 -10 -10 -10 -11 -11 -11 -11 -11 -11 -11 -11 -11 -11 -11 -11 -11 -11 -11 -10 -10 -10 -10
Wind_Speed
1 1 1 1 2 4 5 6 7 5 2 3 8 10 7 5 5 6 4 3 3 2 0 2 2 2 3 3 2 2 2 1 1 1 1 0 0 0 1 1 2 2 1 1
1 0 2 3 4 5 5 6 6 5 2 4 8 11 7 5 4 4 3 2 2 2 1 2 2 3 3 3 3 2 2 2 1 1 1 1 1 1 1 1 2 1 1 1
1 2 3 2 3 4 4 4 6 6 6 5 6 8 4 3 3 2 1 1 1 0 1 0 1 2 3 3 3 3 2 2 2 2 1 1 1 1 0 1 0 1 1 1
0 1 2 1 2 2 4 3 5 6 5 4 2 6 4 4 2 1 1 1 1 1 0 0 0 1 2 3 3 3 3 3 2 1 1 0 1 1 1 1 1 0 0 0
0 1 1 2 2 2 3 5 5 6 5 5 4 5 6 2 3 3 2 1 2 1 0 0 1 1 2 2 3 3 3 3 2 2 1 1 1 1 1 1 1 1 0 0
1 1 1 2 2 2 3 4 4 4 2 4 5 5 6 2 3 2 1 1 1 1 1 1 2 2 2 2 2 3 3 3 3 2 2 1 2 1 2 1 2 1 1 0
3 3 2 0 1 0 2 2 2 2 3 6 2 4 6 2 1 1 1 1 1 1 1 1 2 2 2 2 2 2 3 3 3 3 2 2 2 2 3 3 3 2 1 1
3 3 4 2 1 1 2 1 2 3 4 3 2 6 4 2 2 2 2 2 2 1 1 1 1 1 1 1 2 3 3 3 3 3 3 3 3 2 2 2 2 3 2 2
2 2 2 2 0 0 1 2 1 2 4 5 6 5 2 1 2 2 1 1 2 2 1 1 1 1 1 1 2 2 3 3 4 4 3 3 3 2 1 1 1 1 2 2
2 3 2 2 1 2 2 0 1 2 3 5 6 5 4 2 2 2 1 2 2 2 2 2 2 2 2 1 2 2 2 3 4 4 3 3 3 2 1 1 1 1 1 1
1 2 2 3 6 5 3 2 3 4 4 4 5 5 1 2 1 2 2 2 2 3 2 2 2 2 2 2 2 2 3 3 4 4 3 3 3 3 2 1 1 1 1 1
2 2 4 4 1 1 3 5 6 5 6 5 5 8 1 2 1 1 2 3 3 3 2 2 2 2 2 2 2 2 3 3 3 4 3 3 3 3 2 2 2 1 1 1
3 3 3 3 1 1 3 4 5 4 3 6 8 8 1 0 1 1 2 3 3 2 2 2 2 2 2 2 2 2 2 3 3 3 3 3 3 3 2 2 2 2 1 1
2 4 7 9 5 3 5 6 6 6 6 8 11 13 9 6 5 4 4 4 4 3 2 3 3 2 2 2 2 2 3 3 3 3 3 3 3 3 3 3 3 2 2 1
3 5 7 10 10 7 8 9 9 11 12 12 13 14 14 8 6 5 4 4 4 4 4 4 4 3 3 3 2 2 3 3 3 3 4 4 4 3 3 2 3 3 3 2
3 4 4 9 9 9 12 13 13 14 13 15 16 17 11 5 3 4 4 4 5 5 5 5 5 5 4 4 4 3 3 3 3 3 4 4 4 4 3 3 3 3 3 3
5 4 4 7 5 7 12 14 15 11 11 10 15 14 7 6 5 5 4 4 5 6 6 6 6 5 4 4 4 4 4 3 3 3 4 4 4 4 4 4 3 3 3 3
6 5 4 5 4 11 9 3 7 10 11 10 9 7 5 5 5 4 3 3 5 6 7 6 6 5 4 3 3 3 3 3 3 3 3 4 4 4 4 4 4 4 3 3
6 6 5 4 7 11 6 3 4 6 8 7 9 8 6 4 4 4 2 2 4 5 6 6 5 4 3 2 2 2 3 3 3 3 4 4 4 4 4 4 4 4 4 4
3 5 5 6 6 8 6 2 1 1 6 3 4 5 4 2 3 4 3 4 5 5 5 4 3 2 2 2 1 2 3 3 4 4 4 4 4 4 5 5 5 4 4 4
4 6 9 9 9 9 3 3 3 4 6 1 1 2 2 3 5 4 4 4 4 4 4 3 2 2 2 2 1 2 3 4 4 4 4 4 4 5 5 5 4 4 4 4
8 7 8 7 9 10 3 4 6 5 1 1 1 1 3 4 4 3 4 4 4 4 4 3 3 3 3 2 1 3 4 4 4 4 4 4 4 4 4 4 4 4 4 4
8 8 5 8 8 2 4 4 3 1 1 2 2 2 2 4 4 4 4 4 4 4 3 3 3 4 3 2 2 4 5 3 3 4 4 4 4 4 4 4 4 4 3 4
5 3 5 6 7 5 4 3 2 2 3 3 3 3 3 4 5 5 5 4 4 3 3 3 3 4 4 4 3 4 4 3 3 4 4 4 4 4 4 4 4 3 3 4
5 4 5 7 6 4 4 4 3 3 2 3 3 3 4 4 5 5 5 5 4 4 3 3 3 4 5 4 4 4 4 3 3 4 4 4 4 4 3 3 3 4 4 4
4 5 6 8 5 4 3 2 1 2 3 3 3 4 3 3 4 4 5 4 4 4 3 3 4 4 5 4 5 5 4 3 4 4 3 3 3 3 3 3 4 6 6 8
Wind_Direction
109 61 31 336 299 301 313 306 303 306 325 291 266 271 272 264 234 242 247 245 247 260 278 54 40 42 24 7 352 351 343 352 21 358 326 248 189 300 34 34 37 46 51 56
117 22 308 330 346 319 305 301 299 306 340 307 283 278 267 254 238 231 245 265 279 301 360 36 31 24 8 348 338 342 339 331 310 305 295 251 202 219 186 24 35 56 59 43
143 36 353 352 353 319 298 298 306 310 312 268 279 285 242 239 227 228 230 265 307 303 212 13 13 9 359 349 336 326 329 330 343 345 3 30 45 33 347 319 23 16 30 79
37 20 0 335 323 309 290 336 314 309 307 289 278 294 268 252 242 262 295 349 329 330 352 66 29 357 353 345 340 340 345 347 350 356 339 205 217 233 245 239 208 64 30 41
58 48 340 292 309 300 297 329 304 282 272 289 248 249 275 223 266 265 254 265 277 271 249 77 38 5 10 0 354 346 347 344 343 342 307 267 247 245 241 221 169 158 101 48
195 74 358 335 342 332 324 308 282 259 241 261 230 215 275 219 242 281 273 269 300 10 5 27 40 31 20 12 7 1 351 340 338 333 314 269 248 244 226 208 191 187 186 181
209 181 151 350 309 180 336 359 336 297 229 242 204 221 250 230 112 88 283 308 334 53 54 26 30 360 350 2 0 359 354 337 333 331 318 298 271 241 227 212 202 193 192 214
258 234 162 161 181 214 241 194 194 253 271 293 264 239 243 139 85 63 67 46 12 9 14 339 321 329 328 342 349 346 346 342 335 330 322 317 305 264 241 233 220 204 207 208
254 240 109 132 21 236 218 224 254 255 281 279 255 248 241 76 38 45 46 30 338 336 337 319 324 330 325 324 324 331 336 339 335 328 324 319 320 304 283 255 241 218 199 198
298 268 207 150 179 246 270 221 130 190 256 268 264 249 247 241 263 304 320 308 308 316 312 317 330 340 344 346 343 344 340 334 335 336 329 321 326 319 305 288 261 246 217 198
263 228 222 194 200 197 181 199 212 232 241 247 273 264 216 171 193 242 263 285 296 301 298 307 320 333 348 0 4 349 341 342 342 338 332 327 326 325 321 304 290 278 269 227
202 224 250 226 150 113 200 206 188 208 243 234 255 266 245 138 162 240 298 311 311 302 307 316 323 343 349 342 342 340 339 341 337 335 329 321 316 319 318 307 299 291 274 258
163 184 263 265 283 260 237 228 219 219 247 241 246 261 262 61 274 278 299 306 307 305 310 313 324 329 324 321 323 326 331 332 333 336 329 319 316 313 312 311 310 302 283 276
184 213 222 241 252 207 231 226 209 203 230 248 244 258 276 284 282 294 296 293 292 291 299 308 303 305 307 308 305 312 319 328 326 328 323 311 308 305 303 312 312 309 301 279
182 234 243 260 271 260 245 238 218 219 230 243 258 260 271 275 276 287 291 304 307 304 305 305 297 291 296 304 305 304 307 318 321 320 314 309 313 313 311 308 310 309 304 289
197 241 266 265 257 258 261 247 233 234 239 248 262 270 272 283 296 301 305 303 298 294 293 297 301 299 295 294 296 299 301 309 312 307 306 313 321 324 322 316 311 307 295 292
193 205 242 265 264 284 261 237 226 230 227 228 246 257 275 286 284 282 285 290 288 296 297 291 286 282 282 280 286 281 287 301 302 303 312 316 319 322 324 323 321 312 303 293
192 207 233 267 282 251 248 205 203 222 239 233 244 262 270 268 275 269 272 287 296 301 299 295 290 287 286 285 292 294 296 291 293 298 306 314 317 316 318 319 313 312 310 298
204 200 225 235 253 267 259 218 191 213 257 237 237 257 273 301 310 281 297 308 289 289 293 290 282 276 276 276 284 291 293 294 293 293 298 304 306 307 310 305 303 305 302 293
202 199 219 229 243 252 252 199 162 125 271 268 225 249 266 317 282 273 329 330 316 305 303 302 307 310 295 289 285 280 286 287 285 287 291 296 297 295 294 293 296 297 293 286
186 205 220 233 245 259 247 193 139 196 254 308 215 244 240 234 240 277 317 323 320 317 319 326 330 314 292 294 289 273 276 272 280 289 292 293 293 290 288 291 294 292 290 291
191 197 210 213 232 249 171 149 189 222 295 356 324 273 255 260 280 300 314 316 319 322 325 333 327 312 310 304 287 282 276 283 294 295 292 291 290 289 291 291 291 292 290 290
205 202 204 210 226 244 165 192 214 178 252 280 287 278 262 271 281 294 302 304 302 302 306 309 302 303 308 303 285 281 289 298 296 290 288 291 290 287 287 283 284 284 279 277
227 220 229 251 257 251 224 227 249 240 244 270 275 275 266 263 274 285 288 290 289 294 297 302 304 302 304 304 297 288 298 299 290 286 289 293 292 292 291 286 279 276 274 273
231 202 233 254 269 282 255 234 242 262 267 274 281 271 260 261 275 277 283 283 281 293 298 298 290 290 294 304 305 307 308 302 293 289 286 289 288 287 286 283 277 279 273 275
213 206 216 241 229 216 244 244 268 263 269 270 276 285 278 260 266 279 283 283 285 292 300 303 299 297 300 305 303 307 305 294 289 290 287 285 285 284 283 285 295 293 293 297
Height
1504 1508 1510 1510 1509 1508 1507 1507 1507 1506 1505 1506 1504 1502 1499 1498 1497 1497 1497 1497 1498 1498 1498 1498 1497 1497 1496 1496 1496 1495 1495 1495 1495 1495 1495 1496 1497 1498 1499 1500 1501 1503 1504 1506
1507 1511 1510 1509 1508 1507 1507 1508 1508 1506 1504 1506 1504 1499 1496 1495 1494 1494 1495 1495 1495 1495 1495 1494 1494 1494 1493 1493 1493 1493 1493 1493 1493 1493 1493 1493 1494 1495 1496 1497 1498 1500 1501 1502
1509 1512 1510 1509 1510 1510 1509 1512 1510 1510 1507 1505 1505 1498 1493 1490 1490 1492 1493 1493 1493 1493 1493 1492 1492 1492 1491 1490 1490 1490 1490 1490 1490 1490 1490 1491 1491 1492 1493 1493 1494 1496 1498 1499
1510 1511 1511 1511 1512 1512 1512 1510 1510 1510 1513 1510 1506 1508 1493 1489 1489 1490 1491 1491 1491 1492 1492 1491 1490 1489 1489 1488 1488 1487 1487 1487 1487 1487 1487 1487 1487 1488 1489 1490 1491 1493 1494 1495
1512 1512 1512 1513 1513 1513 1512 1511 1510 1510 1512 1514 1506 1510 1496 1489 1489 1489 1489 1489 1489 1489 1489 1489 1488 1488 1487 1486 1485 1485 1485 1485 1484 1484 1484 1484 1485 1486 1486 1487 1487 1488 1490 1491
1512 1513 1513 1513 1513 1513 1513 1512 1510 1510 1512 1518 1506 1507 1495 1491 1488 1486 1486 1487 1488 1488 1488 1487 1487 1486 1485 1484 1483 1483 1482 1482 1482 1482 1481 1482 1482 1482 1483 1483 1483 1484 1486 1487
1511 1512 1513 1514 1514 1514 1515 1518 1519 1516 1515 1508 1500 1502 1496 1485 1484 1484 1485 1486 1486 1486 1486 1485 1484 1484 1483 1482 1481 1480 1480 1480 1479 1479 1478 1478 1479 1479 1479 1480 1480 1481 1482 1483
1509 1511 1512 1513 1514 1516 1516 1516 1523 1523 1512 1502 1503 1501 1491 1484 1483 1483 1484 1485 1485 1484 1484 1483 1483 1482 1481 1480 1479 1478 1477 1477 1476 1476 1475 1475 1475 1475 1476 1477 1477 1478 1478 1479
1510 1510 1511 1512 1513 1514 1515 1517 1516 1520 1517 1517 1501 1489 1485 1483 1483 1484 1484 1484 1484 1483 1483 1482 1481 1480 1479 1478 1477 1476 1475 1474 1474 1473 1472 1472 1472 1472 1472 1473 1474 1474 1475 1476
1510 1514 1511 1512 1513 1514 1514 1514 1520 1522 1521 1513 1495 1489 1488 1485 1484 1483 1483 1483 1482 1482 1482 1481 1479 1478 1477 1476 1475 1474 1473 1472 1471 1470 1469 1469 1468 1468 1469 1469 1470 1470 1471 1472
1510 1515 1513 1513 1514 1513 1516 1517 1516 1515 1513 1512 1505 1494 1480 1480 1480 1481 1481 1481 1480 1480 1480 1479 1478 1476 1475 1474 1473 1471 1470 1469 1468 1467 1467 1466 1465 1465 1465 1465 1466 1467 1467 1469
1510 1513 1513 1509 1508 1508 1509 1510 1514 1518 1514 1509 1506 1495 1478 1477 1478 1479 1479 1479 1479 1479 1478 1476 1475 1474 1472 1471 1470 1469 1468 1467 1466 1465 1464 1463 1463 1462 1462 1462 1462 1463 1464 1465
1509 1513 1514 1507 1512 1513 1511 1508 1509 1511 1510 1507 1503 1492 1478 1477 1477 1477 1478 1477 1476 1475 1474 1473 1472 1471 1469 1468 1467 1466 1465 1464 1464 1463 1461 1461 1460 1459 1459 1459 1459 1460 1460 1461
1507 1509 1509 1503 1497 1504 1508 1506 1507 1510 1510 1503 1493 1484 1478 1477 1476 1476 1475 1474 1473 1472 1471 1470 1469 1468 1467 1466 1465 1463 1462 1462 1461 1460 1459 1458 1457 1456 1456 1455 1456 1456 1456 1456
1505 1507 1503 1499 1496 1498 1499 1499 1502 1503 1499 1496 1484 1480 1474 1474 1473 1473 1472 1471 1470 1469 1468 1466 1465 1464 1463 1462 1461 1460 1459 1459 1458 1457 1456 1455 1454 1453 1453 1452 1452 1452 1452 1453
1503 1505 1503 1500 1495 1495 1493 1490 1491 1492 1491 1487 1481 1476 1471 1471 1471 1470 1469 1469 1467 1466 1464 1463 1462 1461 1459 1458 1458 1457 1456 1455 1455 1454 1453 1452 1451 1450 1449 1449 1448 1448 1449 1449
1502 1504 1503 1496 1493 1493 1488 1479 1480 1480 1478 1479 1477 1471 1468 1469 1468 1467 1467 1466 1465 1463 1462 1460 1459 1457 1456 1455 1454 1453 1452 1452 1451 1450 1449 1449 1448 1446 1446 1445 1445 1444 1444 1444
1498 1500 1498 1495 1496 1492 1470 1467 1467 1470 1470 1470 1468 1466 1466 1466 1465 1464 1464 1463 1462 1460 1458 1456 1455 1454 1453 1452 1451 1450 1449 1449 1448 1447 1446 1445 1444 1443 1443 1442 1441 1441 1441 1441
1491 1495 1495 1493 1490 1476 1466 1466 1467 1469 1467 1464 1464 1463 1463 1463 1462 1461 1460 1460 1459 1457 1455 1453 1452 1450 1449 1448 1448 1447 1446 1446 1445 1444 1443 1442 1441 1441 1440 1439 1438 1438 1437 1437
1490 1491 1493 1488 1487 1479 1462 1464 1462 1466 1467 1460 1459 1460 1461 1461 1463 1459 1457 1457 1455 1453 1452 1450 1448 1447 1446 1445 1444 1444 1443 1442 1442 1441 1440 1439 1439 1438 1437 1436 1435 1435 1434 1433
1490 1489 1488 1484 1481 1468 1463 1462 1463 1469 1461 1458 1457 1457 1458 1459 1459 1457 1455 1453 1452 1450 1449 1447 1445 1444 1443 1442 1441 1440 1440 1439 1439 1438 1437 1436 1436 1435 1434 1432 1432 1431 1430 1429
1478 1480 1480 1478 1476 1466 1461 1461 1462 1459 1457 1456 1456 1456 1456 1455 1454 1453 1451 1450 1448 1447 1445 1444 1442 1441 1440 1439 1438 1437 1436 1436 1436 1435 1433 1433 1432 1431 1430 1429 1428 1428 1427 1425
1468 1466 1465 1465 1461 1456 1456 1455 1455 1455 1455 1454 1454 1454 1453 1452 1451 1450 1448 1447 1445 1444 1442 1441 1439 1438 1437 1436 1435 1434 1433 1433 1432 1431 1430 1429 1428 1427 1427 1426 1425 1424 1423 1422
1460 1459 1460 1459 1454 1453 1453 1452 1452 1452 1452 1452 1451 1451 1450 1449 1447 1446 1445 1443 1442 1440 1439 1438 1436 1435 1434 1433 1432 1431 1430 1429 1428 1427 1426 1425 1425 1424 1423 1422 1421 1420 1419 1418
1454 1456 1456 1455 1452 1451 1449 1449 1449 1449 1449 1448 1448 1447 1446 1445 1444 1443 1441 1439 1438 1437 1436 1435 1433 1432 1431 1430 1429 1428 1427 1426 1424 1424 1423 1422 1421 1420 1419 1419 1418 1417 1416 1416
1450 1452 1452 1448 1446 1447 1446 1446 1446 1445 1445 1444 1444 1443 1442 1441 1440 1439 1438 1436 1435 1433 1432 1431 1430 1429 1427 1426 1425 1424 1424 1422 1421 1420 1419 1418 1418 1417 1416 1415 1414 1413 1413 1412